When you browse on this site, cookies collect data to enhance your experience and personalize the content and advertising you see.
Visit our Privacy Policy to learn more. By continuing to use the site, you agree to this use of cookies and data.
  • In Sweden
  • List of Countries
  • For 7 days
  • Water Temperature
  • Weather Map
  • Weather Widgets
  • user-avatar
    Login

    Hourly Weather Borlange

    Today, 27 February, Thursday

    Time Temperature Precipitation Wind Pressure Humidity
    00:00 -5°C° 0 mm 2 mps 736 mmHg 78%
    01:00 -5°C° 0 mm 2 mps 736 mmHg 79%
    02:00 -5°C° 0 mm 2 mps 736 mmHg 80%
    03:00 -5°C° 0 mm 2 mps 736 mmHg 80%
    04:00 -5°C° 0 mm 2 mps 736 mmHg 81%
    05:00 -5°C° 0 mm 2 mps 736 mmHg 81%
    06:00 -6°C° 0 mm 2 mps 736 mmHg 80%
    07:00 -6°C° 0 mm 2 mps 736 mmHg 80%
    08:00 -5°C° 0 mm 2 mps 736 mmHg 75%
    09:00 -4°C° 0 mm 2 mps 736 mmHg 69%
    10:00 -4°C° 0 mm 2 mps 736 mmHg 64%
    11:00 -3°C° 0 mm 2 mps 736 mmHg 59%
    12:00 -1°C° 0 mm 1 mps 736 mmHg 55%
    13:00 0°C° 0 mm 1 mps 736 mmHg 50%
    14:00 0°C° 0 mm 1 mps 736 mmHg 52%
    15:00 0°C° 0 mm 1 mps 736 mmHg 55%
    16:00 -1°C° 0 mm 1 mps 736 mmHg 57%
    17:00 -1°C° 0 mm 1 mps 735 mmHg 61%
    18:00 -2°C° 0 mm 1 mps 735 mmHg 65%
    19:00 -2°C° 0 mm 1 mps 735 mmHg 69%
    20:00 -2°C° 0 mm 1 mps 735 mmHg 71%
    21:00 -3°C° 0 mm 0 mps 735 mmHg 74%
    22:00 -3°C° 0 mm 0 mps 735 mmHg 76%
    23:00 -4°C° 0 mm 0 mps 736 mmHg 78%

    Tomorrow, 28 February, Friday

    Time Temperature Precipitation Wind Pressure Humidity
    00:00 -4°C° 0 mm 0 mps 736 mmHg 80%
    01:00 -4°C° 0 mm 0 mps 736 mmHg 81%
    02:00 -4°C° 0 mm 0 mps 736 mmHg 82%
    03:00 -4°C° 0 mm 0 mps 736 mmHg 83%
    04:00 -4°C° 0 mm 0 mps 736 mmHg 84%
    05:00 -5°C° 0 mm 0 mps 736 mmHg 84%
    06:00 -5°C° 0 mm 0 mps 737 mmHg 84%
    07:00 -5°C° 0 mm 0 mps 737 mmHg 84%
    08:00 -4°C° 0 mm 0 mps 737 mmHg 77%
    09:00 -3°C° 0 mm 0 mps 737 mmHg 69%
    10:00 -2°C° 0 mm 0 mps 737 mmHg 62%
    11:00 -1°C° 0 mm 1 mps 738 mmHg 55%
    12:00 0°C° 0 mm 1 mps 738 mmHg 48%
    13:00 +1°C° 0 mm 1 mps 738 mmHg 41%
    14:00 +1°C° 0 mm 1 mps 738 mmHg 41%
    15:00 +1°C° 0 mm 1 mps 738 mmHg 42%
    16:00 +1°C° 0 mm 1 mps 738 mmHg 42%
    17:00 0°C° 0 mm 1 mps 738 mmHg 47%
    18:00 0°C° 0 mm 1 mps 738 mmHg 53%
    19:00 -1°C° 0 mm 1 mps 738 mmHg 58%
    20:00 -1°C° 0 mm 1 mps 738 mmHg 62%
    21:00 -1°C° 0 mm 1 mps 738 mmHg 66%
    22:00 -2°C° 0 mm 1 mps 738 mmHg 70%
    23:00 -2°C° 0 mm 1 mps 738 mmHg 74%

    Day after tomorrow, 29 February, Saturday

    Time Temperature Precipitation Wind Pressure Humidity
    00:00 -2°C° 0 mm 1 mps 738 mmHg 78%
    01:00 -2°C° 0 mm 1 mps 738 mmHg 82%
    02:00 -2°C° 0 mm 1 mps 737 mmHg 86%
    03:00 -2°C° 0 mm 1 mps 737 mmHg 90%
    04:00 -2°C° 0 mm 1 mps 737 mmHg 95%
    05:00 -2°C° 0 mm 1 mps 737 mmHg 94%
    06:00 -4°C° 0 mm 2 mps 737 mmHg 94%
    07:00 -4°C° 0 mm 2 mps 736 mmHg 94%
    08:00 -3°C° 0 mm 2 mps 736 mmHg 92%
    09:00 -2°C° 0 mm 2 mps 736 mmHg 89%
    10:00 -1°C° 0 mm 2 mps 736 mmHg 87%
    11:00 -1°C° 0 mm 2 mps 735 mmHg 86%
    12:00 0°C° 0 mm 3 mps 735 mmHg 84%
    13:00 0°C° 0 mm 3 mps 734 mmHg 83%
    14:00 0°C° 0 mm 3 mps 734 mmHg 81%
    15:00 -1°C° 0 mm 4 mps 733 mmHg 80%
    16:00 -1°C° 0 mm 4 mps 732 mmHg 79%
    17:00 -1°C° 0.2 mm 4 mps 731 mmHg 85%
    18:00 -1°C° 0.2 mm 5 mps 730 mmHg 90%
    19:00 -2°C° 0.2 mm 5 mps 729 mmHg 96%
    20:00 -2°C° 0.5 mm 5 mps 729 mmHg 96%
    21:00 -2°C° 0.5 mm 4 mps 728 mmHg 96%
    22:00 -1°C° 0.5 mm 4 mps 727 mmHg 97%
    23:00 -1°C° 0.2 mm 4 mps 726 mmHg 97%

    1 March, Sunday

    Time Temperature Precipitation Wind Pressure Humidity
    00:00 0°C° 0.2 mm 4 mps 725 mmHg 97%
    01:00 +1°C° 0.2 mm 3 mps 724 mmHg 97%
    02:00 +1°C° 0.6 mm 3 mps 723 mmHg 97%
    03:00 +1°C° 0.6 mm 3 mps 722 mmHg 97%
    04:00 +2°C° 0.6 mm 2 mps 721 mmHg 98%
    05:00 +1°C° 0.4 mm 3 mps 721 mmHg 96%
    06:00 +1°C° 0.4 mm 3 mps 721 mmHg 95%
    07:00 +1°C° 0.4 mm 3 mps 721 mmHg 93%
    08:00 0°C° 0 mm 4 mps 721 mmHg 89%
    09:00 0°C° 0 mm 4 mps 721 mmHg 85%
    10:00 +1°C° 0 mm 4 mps 722 mmHg 81%
    11:00 +1°C° 0 mm 5 mps 722 mmHg 83%
    12:00 0°C° 0 mm 5 mps 722 mmHg 85%
    13:00 0°C° 0 mm 5 mps 722 mmHg 87%
    14:00 0°C° 0 mm 5 mps 721 mmHg 88%
    15:00 0°C° 0 mm 4 mps 721 mmHg 89%
    16:00 0°C° 0 mm 4 mps 721 mmHg 89%
    17:00 0°C° 0.3 mm 4 mps 721 mmHg 92%
    18:00 0°C° 0.3 mm 4 mps 720 mmHg 94%
    19:00 0°C° 0.3 mm 4 mps 720 mmHg 96%
    20:00 0°C° 0.3 mm 4 mps 720 mmHg 96%
    21:00 0°C° 0.3 mm 4 mps 720 mmHg 95%
    22:00 -1°C° 0.3 mm 4 mps 720 mmHg 94%
    23:00 -1°C° 0.1 mm 4 mps 720 mmHg 95%

    2 March, Monday

    Time Temperature Precipitation Wind Pressure Humidity
    00:00 0°C° 0.1 mm 3 mps 720 mmHg 96%
    01:00 0°C° 0.1 mm 3 mps 721 mmHg 97%
    02:00 0°C° 0.3 mm 3 mps 721 mmHg 97%
    03:00 -1°C° 0.3 mm 4 mps 721 mmHg 97%
    04:00 -1°C° 0.3 mm 4 mps 721 mmHg 97%
    05:00 -1°C° 0.3 mm 4 mps 721 mmHg 96%
    06:00 -1°C° 0.3 mm 4 mps 721 mmHg 96%
    07:00 -1°C° 0.3 mm 4 mps 721 mmHg 96%
    08:00 -1°C° 0.2 mm 4 mps 721 mmHg 96%
    09:00 -1°C° 0.2 mm 4 mps 722 mmHg 96%
    10:00 -1°C° 0.2 mm 4 mps 722 mmHg 96%
    11:00 0°C° 0.3 mm 4 mps 722 mmHg 95%
    12:00 +1°C° 0.3 mm 3 mps 723 mmHg 95%
    13:00 +1°C° 0.3 mm 3 mps 723 mmHg 95%
    14:00 +1°C° 0.5 mm 3 mps 724 mmHg 95%
    15:00 0°C° 0.5 mm 3 mps 724 mmHg 96%
    16:00 +1°C° 0.5 mm 2 mps 725 mmHg 97%
    17:00 -1°C° 0.1 mm 2 mps 725 mmHg 96%
    18:00 -2°C° 0.1 mm 2 mps 726 mmHg 94%
    19:00 -3°C° 0.1 mm 2 mps 726 mmHg 93%
    20:00 -3°C° 0 mm 2 mps 727 mmHg 92%
    21:00 -4°C° 0 mm 2 mps 727 mmHg 91%
    22:00 -2°C° 0 mm 1 mps 728 mmHg 90%
    23:00 -2°C° 0.1 mm 1 mps 728 mmHg 91%

    3 March, Tuesday

    Time Temperature Precipitation Wind Pressure Humidity
    00:00 -5°C° 0.1 mm 2 mps 729 mmHg 91%
    01:00 -5°C° 0.1 mm 2 mps 729 mmHg 92%
    02:00 -4°C° 0.5 mm 2 mps 729 mmHg 93%
    03:00 -2°C° 0.5 mm 1 mps 729 mmHg 93%
    04:00 -2°C° 0.5 mm 1 mps 729 mmHg 94%
    05:00 -2°C° 0.3 mm 1 mps 729 mmHg 94%
    06:00 -2°C° 0.3 mm 1 mps 730 mmHg 94%
    07:00 -2°C° 0.3 mm 1 mps 730 mmHg 95%
    08:00 -1°C° 0.2 mm 1 mps 730 mmHg 93%
    09:00 0°C° 0.2 mm 1 mps 730 mmHg 90%
    10:00 +1°C° 0.2 mm 1 mps 730 mmHg 88%
    11:00 +1°C° 0.2 mm 1 mps 731 mmHg 87%
    12:00 +1°C° 0.2 mm 2 mps 731 mmHg 86%
    13:00 +1°C° 0.2 mm 2 mps 731 mmHg 84%
    14:00 +1°C° 0.3 mm 2 mps 731 mmHg 86%
    15:00 +1°C° 0.3 mm 2 mps 732 mmHg 87%
    16:00 +2°C° 0.3 mm 1 mps 732 mmHg 88%
    17:00 -1°C° 0.1 mm 2 mps 732 mmHg 89%
    18:00 -2°C° 0.1 mm 3 mps 733 mmHg 90%
    19:00 -4°C° 0.1 mm 3 mps 733 mmHg 92%
    20:00 -5°C° 0.1 mm 3 mps 734 mmHg 90%
    21:00 -5°C° 0.1 mm 4 mps 734 mmHg 88%
    22:00 -7°C° 0.1 mm 4 mps 735 mmHg 86%
    23:00 -6°C° 0 mm 3 mps 735 mmHg 87%
    Show more